カタログに戻る

STARLINK-5167

運用中通信VLEO
NORAD 54058·PAYLOAD·🇺🇸 United States

打ち上げ Oct 20, 2022 から Cape Canaveral Space Force Station

Loading…

次のパス (今後24時間)

TLE

最新Source: CelesTrak SupGP

元期: Sep 15, 2026, 03:01 UTC

1 54058C 22136H   26258.12618056 -.00009732  00000+0 -27841-3 0  2583
2 54058  53.1581 202.7502 0001447  85.0892 132.6833 15.35407068    19

AllMySatでSTARLINK-5167をリアルタイム追跡

Download on the App Store